Regional Weather Roundup
Issued by NWS

Home | Current Version | Previous Version | Text Only | Print | Product List | Glossary On
Versions: 1 2 3 4 5 6 7 8 9 10 11 12 13 14 15 16 17 18 19 20 21 22 23 24 25 26 27 28 29 30 31 32 33 34 35 36 37 38 39 40 41 42 43 44 45 46 47 48 49 50
000
ASUS46 KLOX 021212
RWRCA

SOUTHERN CALIFORNIA WEATHER ROUNDUP
NATIONAL WEATHER SERVICE OXNARD CALIFORNIA
500 AM PDT THU OCT 02 2014

NOTE: "FAIR" INDICATES FEW OR NO CLOUDS BELOW 12,000 FEET WITH NO
SIGNIFICANT WEATHER AND/OR OBSTRUCTIONS TO VISIBILITY.

  -  STATIONS PRECEEDED BY AN ASTERISK (*) ARE NOT NWS OR FAA
     STATIONS AND ARE NOT SUBJECT TO NWS AND FAA QUALITY CONTROL.

CAZ041-042-087-021300-
LA AND ORANGE COUNTY COASTAL AREAS


CITY           SKY/WX    TMP DP  RH WIND       PRES   REMARKS
L.A. DOWNTOWN  CLEAR     64  59  83 CALM      29.89R
L.A. AIRPORT   CLEAR     64  59  83 CALM      29.90R
LONG BEACH     CLEAR     65  61  87 NW5       29.89R

CITY           SKY/WX    TMP DP  RH WIND       PRES   REMARKS
AVALON           N/A     59 N/A N/A MISG        N/A
FULLERTON      CLEAR     63  57  81 CALM      29.88R
*GETTY CENTER    N/A     75  25  15 VRB18       N/A
HAWTHORNE      CLEAR     65  61  87 CALM      29.89R
*LEO CARRILLO    N/A     62  57  84 NE2         N/A
*LOS ALAMITOS  FAIR      59  58  96 CALM      29.88R
*REDONDO BEACH   N/A     61  58  90 CALM      29.88R
SANTA ANA      CLEAR     67  60  78 CALM      29.88R
STA MONICA APT CLEAR     63  57  81 N5        29.89R
*STA MON PIER    N/A     65  60  83 W1        29.89R
*UCLA            N/A     72  36  26 N8        29.88R

$$

CAZ547-548-048-021300-
LA COUNTY VALLEYS AND INLAND EMPIRE


CITY           SKY/WX    TMP DP  RH WIND       PRES   REMARKS
BURBANK        CLEAR     61  51  70 CALM      29.91R
VAN NUYS       CLEAR     62  54  74 NW3       29.91R

CITY           SKY/WX    TMP DP  RH WIND       PRES   REMARKS
CORONA AIRPORT SUNNY     67  53  60 SE7       29.92R
*CHATSWORTH      N/A     66  49  55 NE1       29.88R
CHINO          CLEAR     57  54  89 CALM      29.93R
*CLAREMONT       N/A     61  27  27 N3          N/A
MARCH AFB      CLEAR     55  51  87 SW1       29.96R
*NORTHRIDGE      N/A     61  54  77 S1          N/A
ONTARIO        CLEAR     65  46  50 VRB5      29.91S
*PASADENA        N/A     66  50  55 CALM        N/A
RIVERSIDE      CLEAR     63  53  70 E6        29.93R
SAN BERNARDINO NOT AVBL
*SAN GABRIEL     N/A     61  54  78 CALM      29.87R
*SAN RAFAEL HI   N/A     75  50  40 N2          N/A
*SAUGUS          N/A     68  20  16 N5          N/A
*WHITEMAN AP   NOT AVBL
*WHITTIER HILL   N/A     72  52  49 NE10        N/A
*WOODLAND HILL   N/A     57  52  82 S1          N/A

$$

CAZ054-055-021300-
LA AND SAN BERNARDINO COUNTY MOUNTAINS


CITY           SKY/WX    TMP DP  RH WIND       PRES   REMARKS
*ACTON           N/A     66  17  15 N15         N/A
*BIG BEAR AIRP MOSUNNY   32  18  55 E3        30.26S
*BIG PINES       N/A     49  14  24 CALM        N/A
MT WILSON NWS    N/A     59  23  25 MISG        N/A
SANDBERG       CLEAR     64  12  13 E22       30.14R
*WARM SPRINGS    N/A     62  15  16 NE26        N/A

$$

CAZ028-029-059-060-099-021300-
ANTELOPE VALLEY AND SURROUNDING AREAS


CITY           SKY/WX    TMP DP  RH WIND       PRES   REMARKS
LANCASTER      CLEAR     48  20  32 W5        30.08R
PALMDALE       CLEAR     52  23  32 CALM      30.09R
*POPPY PARK      N/A     52  16  24 W6          N/A

CITY           SKY/WX    TMP DP  RH WIND       PRES   REMARKS
29 PALMS       CLEAR     58  24  27 S3        30.13R
BARSTOW/DAGGET CLEAR     56  13  18 SE6       30.06R
BISHOP         PTCLDY    40  21  46 NW6       30.19S
CHINA LAKE     CLEAR     52  18  26 NE3       30.08R
EDWARDS AFB    CLEAR     54  14  20 N7        30.06R
MOJAVE         FAIR      55  18  22 CALM      30.10R
NEEDLES        CLEAR     71  27  19 N14       30.03R
VICTORVILLE    CLEAR     52  19  28 CALM      30.09R

$$

CAZ039-040-021300-
VENTURA AND SANTA BARBARA COUNTY COAST


CITY           SKY/WX    TMP DP  RH WIND       PRES   REMARKS
CAMARILLO      CLEAR     54  51  90 CALM      29.89R
NWS OXNARD       N/A     58  55  87 CALM      29.89R
OXNARD AIRPORT FOG       61  60  97 CALM      29.89R VSB 1/4
*POINT MUGU    FOG       60  56  86 MISG      29.90R VSB 1/2
SBA APT/GOLETA CLEAR     58  55  90 CALM      29.88S
*VENTURA         N/A     58  51  78 CALM      29.93S

$$

CAZ044-045-021300-
VENTURA COUNTY VALLEYS


CITY           SKY/WX    TMP DP  RH WIND       PRES   REMARKS
*SIMI VALLEY     N/A     76  27  16 NW12      29.85R
*OJAI            N/A     49  44  84 CALM      29.88R
*FILLMORE        N/A     70  36  29 CALM      29.81R

$$

CAZ053-021300-
VENTURA COUNTY MOUNTAINS


CITY           SKY/WX    TMP DP  RH WIND       PRES   REMARKS
*LOCKWOOD VLY    N/A     37  16  41 MISG        N/A
*ROSE VALLEY     N/A    N/A N/A N/A MISG        N/A

$$

CAZ034-035-036-021300-
CENTRAL COAST AND SANTA YNEZ VALLEY


CITY           SKY/WX    TMP DP  RH WIND       PRES   REMARKS
SAN LUIS OBISP CLEAR     59  46  62 E7        29.91R
SANTA MARIA    CLEAR     61  46  57 SE3       29.91R

CITY           SKY/WX    TMP DP  RH WIND       PRES   REMARKS
*CAL POLY SLO    N/A     75  50  41 N14         N/A
*LOMPOC        CLEAR     54  43  66 E5        29.91S
*PISMO BEACH     N/A     63  48  57 CALM      29.91R
*SANTA YNEZ    FAIR      54  43  66 CALM      29.93R

$$

CAZ037-038-051-021300-
SAN LUIS OBISPO COUNTY INTERIOR AND CUYAMA VALLEY


CITY           SKY/WX    TMP DP  RH WIND       PRES   REMARKS
*CUYAMA          N/A     50  42  72 E2        29.98R
PASO ROBLES    CLEAR     53  38  56 NE5       29.99R

$$

CAZ032-033-061-021300-
SOUTHERN DESERTS


CITY           SKY/WX    TMP DP  RH WIND       PRES   REMARKS
BLYTHE         CLEAR     76  31  19 N16       29.94R
IMPERIAL       CLEAR     68  44  42 SW7       29.89R
PALM SPRINGS   CLEAR     80  21  11 NW7       29.95R
THERMAL        CLEAR     61  39  44 SW5       29.90R

$$

ELSEWHERE ACROSS THE WESTERN UNITED STATES AND MEXICO


CITY           SKY/WX    TMP DP  RH WIND       PRES   REMARKS
DENVER, CO     PTCLDY    39  36  89 SW6       30.13R WCI  35
GRAND CANYON,  PTCLDY    34  24  67 CALM      30.28R
HONOLULU, HI   PTCLDY    75  70  83 NW3       29.93F
KAHULUI, MAUI  CLEAR     72  66  83 SE6       29.93F
LAKE TAHOE, CA PTCLDY    30  24  78 S5        30.28R WCI  25
LAS VEGAS, NV  CLEAR     63  29  27 S7        30.12R
MAMMOTH LAKES, FAIR      28  16  59 CALM      30.31S
MEXICO CITY, M PTCLDY    59  54  82 E5        30.26R
PHOENIX, AZ    CLEAR     70  52  52 S3        29.91R
PORTLAND, OR   CLEAR     49  47  93 SE3       30.23F
RENO, NV       PTCLDY    41  30  65 CALM      30.26R
SALT LAKE CITY CLEAR     42  35  76 SE7       30.26R
SAN DIEGO, CA  CLEAR     67  61  81 CALM      29.89R
SAN FRANCISCO, CLEAR     61  43  51 CALM      29.96S
SAN JOSE, CA   CLEAR     55  42  61 S3        29.96S
SEATTLE, WA    MOCLDY    54  46  74 CALM      30.24R
TIJUANA, MEX   CLEAR     63  57  82 CALM      29.90R

$$

STATION/POSITION TIME  TEMP    WIND        PRES    VSBY  WAVE
                       AIR SEA DIR/SP/G                  HT/PER
                 (UTC) (F)     (DEG/KT/KT) (MB)    (MI)  (FT/S)
POINT ARGUELLO B NOT AVBL
WEST SANTA BARBA 1200   64 65  100/  8/ 12 1011.1R         7/11
POINT CONCEPTION NOT AVBL
EAST SANTA BARBA NOT AVBL
SANTA MONICA BAY 1200   67 70   CALM  /  2 1011.8R         3/15


USA.gov is the U.S. government's official web portal to all federal, state and local government web resources and services.